Location: Fort Worth, Tx
(32.7431°N, 97.3695°W)
Time: 14:39:53
(UTC-04:00)

Tiros 1 - Pass Details

Date: 23 February 2024
Orbit: 625 x 657 km, 48.4° (Epoch: 11 April)

Event Time Altitude Azimuth Distance (km) Brightness Sun altitude
Rises 21:04:10 0° 203° (SSW) 2,952 10.8 -22.3°
Reaches altitude 10° 21:06:43 10° 193° (SSW) 2,048 9.8 -22.8°
Enters shadow 21:08:50 22° 172° (S) 1,427 8.8 -23.3°
